[Date Prev][Date Next][Thread Prev][Thread Next] - [Date Index][Thread Index][Author Index]
2 Line ISS Keps 11-29
- Subject: [sarex] 2 Line ISS Keps 11-29
- From: "Dave Larsen PhD" <doc@xxxxxxxxxxx>
- Date: Mon, 28 Nov 2005 20:03:53 -0800
ISS
1 25544U 98067A 05332.94711263 .00011070 00000-0 85249-4 0 8457
2 25544 051.6433 136.4841 0008637 340.7865 157.0356 15.72552341401612
----
Via the sarex mailing list at AMSAT.ORG courtesy of AMSAT-NA.
To unsubscribe, send "unsubscribe sarex" to Majordomo@amsat.org
AMSAT Home